Monroe, MI

1:18 AM EDT on July 27, 2017 (GMT -0400)
Custer

Weather History for KTTF - March, 2012

Change the Weather History Date:

Thursday, March 8, 2012

  Actual Average Record
Temperature  
Mean Temperature 48 °F -  
Max Temperature 62 °F 41 °F 72 °F (1987)
Min Temperature 33 °F 24 °F -1 °F (1943)
Degree Days  
Heating Degree Days 18    
Moisture  
Dew Point 41 °F    
Average Humidity 75    
Maximum Humidity 100    
Minimum Humidity 52    
Precipitation  
Precipitation 0.00 in - - ()
Sea Level Pressure  
Sea Level Pressure 29.93 in    
Wind  
Wind Speed 19 mph (WSW)    
Max Wind Speed 28 mph    
Max Gust Speed 43 mph    
Visibility 9 miles    
Events Rain    
Averages and records for this station are not official NWS values.
T = Trace of Precipitation, MM = Missing Value Source: NWS Daily Summary

Daily Weather History Graph

Daily Weather History Graph

Search for Another Location

Airport or City:

Trip Planner

Search our weather history database for the weather conditions in past years. The results will help you decide how hot, cold, wet, or windy it might be!

Date:

Astronomy

Mar. 08, 2012 Rise Set
Actual Time 6:56 AM EST 6:32 PM EST
Civil Twilight 6:28 AM EST 7:00 PM EST
Nautical Twilight 5:56 AM EST 7:32 PM EST
Astronomical Twilight 5:23 AM EST 8:05 PM EST
Moon 7:20 PM EST (3/8) 6:38 AM EST (3/8)
Length of Visible Light 12h 31m
Length of Day
11h 36m
Full, 100% of the Moon is Illuminated
Mar 8
Full
Mar 14
Last Quarter
Mar 22
New
Mar 30
First Quarter
Apr 6
Full

Hourly Weather History & Observations

Time (EST) Temp. Windchill Dew Point Humidity Pressure Visibility Wind Dir Wind Speed Gust Speed Precip Events Conditions
12:35 AM 60.8 °F - 44.6 °F 55% 29.91 in 10.0 mi SSW 21.9 mph 31.1 mph N/A   Overcast
12:55 AM 60.8 °F - 44.6 °F 55% 29.91 in 10.0 mi SSW 21.9 mph 29.9 mph N/A   Overcast
1:35 AM 60.8 °F - 44.6 °F 55% 29.90 in 10.0 mi SSW 20.7 mph 28.8 mph N/A   Overcast
1:50 AM 60.8 °F - 44.6 °F 55% 29.89 in 10.0 mi SW 20.7 mph 29.9 mph N/A   Overcast
2:10 AM 62.6 °F - 44.6 °F 52% 29.88 in 10.0 mi SSW 23.0 mph 31.1 mph N/A   Overcast
2:51 AM 62.6 °F - 44.6 °F 52% 29.86 in 10.0 mi SSW 20.7 mph 34.5 mph N/A   Overcast
3:31 AM 62.6 °F - 44.6 °F 52% 29.83 in 10.0 mi SSW 27.6 mph 40.3 mph N/A   Overcast
3:51 AM 60.8 °F - 44.6 °F 55% 29.83 in 10.0 mi SSW 25.3 mph 35.7 mph N/A   Overcast
4:11 AM 60.8 °F - 46.4 °F 59% 29.83 in 10.0 mi SSW 23.0 mph 35.7 mph N/A Rain Light Rain
4:31 AM 59.0 °F - 46.4 °F 63% 29.82 in 10.0 mi SSW 23.0 mph 36.8 mph N/A Rain Light Rain
4:52 AM 59.0 °F - 48.2 °F 67% 29.82 in 10.0 mi SSW 21.9 mph 29.9 mph N/A Rain Rain
5:12 AM 59.0 °F - 48.2 °F 67% 29.83 in 7.0 mi SW 23.0 mph 34.5 mph N/A Rain Rain
5:32 AM 57.2 °F - 48.2 °F 72% 29.82 in 10.0 mi SSW 19.6 mph 27.6 mph N/A   Overcast
5:52 AM 57.2 °F - 50.0 °F 77% 29.82 in 10.0 mi SSW 18.4 mph 29.9 mph N/A Rain Light Rain
6:12 AM 57.2 °F - 50.0 °F 77% 29.82 in 7.0 mi SSW 21.9 mph 32.2 mph N/A Rain Light Rain
6:32 AM 55.4 °F - 51.8 °F 88% 29.82 in 5.0 mi SW 17.3 mph 28.8 mph N/A Rain Light Rain
6:52 AM 57.2 °F - 50.0 °F 77% 29.81 in 10.0 mi SSW 19.6 mph 25.3 mph N/A   Overcast
7:12 AM 57.2 °F - 50.0 °F 77% 29.82 in 10.0 mi SW 13.8 mph 21.9 mph N/A Rain Light Rain
7:33 AM 57.2 °F - 51.8 °F 82% 29.81 in 5.0 mi SW 15.0 mph 26.5 mph N/A Rain Rain
7:53 AM 55.4 °F - 51.8 °F 88% 29.81 in 10.0 mi SW 12.7 mph 19.6 mph N/A Rain Light Rain
8:13 AM 57.2 °F - 53.6 °F 88% 29.80 in 10.0 mi SW 17.3 mph 29.9 mph N/A   Overcast
8:33 AM 57.2 °F - 53.6 °F 88% 29.79 in 10.0 mi SSW 15.0 mph 21.9 mph N/A   Overcast
8:53 AM 57.2 °F - 53.6 °F 88% 29.81 in 10.0 mi SW 20.7 mph 28.8 mph N/A   Overcast
9:13 AM 57.2 °F - 55.4 °F 94% 29.80 in 7.0 mi SSW 18.4 mph 25.3 mph N/A   Light Drizzle
9:33 AM 55.4 °F - 55.4 °F 100% 29.81 in 10.0 mi SW 12.7 mph 20.7 mph N/A   Overcast
9:53 AM 55.4 °F - 55.4 °F 100% 29.80 in 4.0 mi SSW 13.8 mph 20.7 mph N/A Rain Light Rain
10:14 AM 57.2 °F - 57.2 °F 100% 29.82 in 7.0 mi WSW 15.0 mph - N/A   Overcast
10:34 AM 53.6 °F - 53.6 °F 100% 29.86 in 2.5 mi WNW 23.0 mph 42.6 mph N/A   Heavy Drizzle
10:54 AM 48.2 °F - 48.2 °F 100% 29.87 in 4.0 mi WNW 18.4 mph 24.2 mph N/A Rain Light Rain
11:34 AM 46.4 °F 41.5 °F 46.4 °F 100% 29.87 in 10.0 mi WNW 10.4 mph 18.4 mph N/A Rain Rain
11:54 AM 46.4 °F 41.1 °F 46.4 °F 100% 29.87 in 7.0 mi West 11.5 mph - N/A Rain Light Rain
12:14 PM 46.4 °F 40.7 °F 46.4 °F 100% 29.89 in 7.0 mi WNW 12.7 mph 20.7 mph N/A Rain Light Rain
12:35 PM 44.6 °F 38.1 °F 44.6 °F 100% 29.92 in 5.0 mi WNW 13.8 mph 25.3 mph N/A Rain Light Rain
1:15 PM 44.6 °F 37.4 °F 44.6 °F 100% 29.92 in 7.0 mi WNW 16.1 mph - N/A   Overcast
1:35 PM 44.6 °F 37.8 °F 42.8 °F 93% 29.92 in 7.0 mi WNW 15.0 mph 23.0 mph N/A   Overcast
1:50 PM 44.6 °F 36.9 °F 41.0 °F 87% 29.93 in 7.0 mi West 18.4 mph 26.5 mph N/A   Overcast
2:10 PM 44.6 °F 36.9 °F 39.2 °F 81% 29.93 in 10.0 mi WNW 18.4 mph 25.3 mph N/A   Overcast
2:30 PM 44.6 °F 36.6 °F 39.2 °F 81% 29.93 in 10.0 mi WNW 19.6 mph 27.6 mph N/A   Overcast
2:51 PM 42.8 °F 34.5 °F 37.4 °F 81% 29.93 in 10.0 mi WNW 18.4 mph 25.3 mph N/A   Overcast
3:11 PM 42.8 °F 34.5 °F 37.4 °F 81% 29.95 in 10.0 mi West 18.4 mph 21.9 mph N/A   Overcast
3:31 PM 44.6 °F 36.9 °F 37.4 °F 76% 29.96 in 10.0 mi West 18.4 mph 26.5 mph N/A   Overcast
3:51 PM 42.8 °F 34.8 °F 37.4 °F 81% 29.97 in 10.0 mi WNW 17.3 mph 25.3 mph N/A   Overcast
4:11 PM 42.8 °F 34.8 °F 35.6 °F 76% 29.98 in 10.0 mi West 17.3 mph 23.0 mph N/A   Overcast
4:31 PM 42.8 °F 33.8 °F 35.6 °F 76% 29.98 in 10.0 mi West 21.9 mph - N/A   Overcast
4:52 PM 42.8 °F 34.0 °F 30.2 °F 61% 30.00 in 10.0 mi WNW 20.7 mph 28.8 mph N/A   Scattered Clouds
5:12 PM 42.8 °F 33.5 °F 30.2 °F 61% 30.02 in 10.0 mi West 23.0 mph 27.6 mph N/A   Scattered Clouds
5:32 PM 42.8 °F 33.5 °F 28.4 °F 57% 30.04 in 10.0 mi West 23.0 mph 27.6 mph N/A   Scattered Clouds
5:52 PM 42.8 °F 34.3 °F 28.4 °F 57% 30.04 in 10.0 mi West 19.6 mph 24.2 mph N/A   Scattered Clouds
6:12 PM 41.0 °F 32.8 °F 26.6 °F 57% 30.05 in 10.0 mi WNW 16.1 mph 21.9 mph N/A   Scattered Clouds
6:32 PM 39.2 °F 30.5 °F 26.6 °F 61% 30.07 in 10.0 mi WNW 16.1 mph 21.9 mph N/A   Clear
6:53 PM 37.4 °F 27.8 °F 24.8 °F 60% 30.08 in 10.0 mi WNW 17.3 mph - N/A   Clear
7:13 PM 37.4 °F 29.3 °F 26.6 °F 65% 30.10 in 10.0 mi WNW 12.7 mph 20.7 mph N/A   Clear
7:33 PM 37.4 °F 29.3 °F 24.8 °F 60% 30.12 in 10.0 mi WNW 12.7 mph 18.4 mph N/A   Clear
7:53 PM 35.6 °F 28.6 °F 26.6 °F 70% 30.12 in 10.0 mi WNW 9.2 mph - N/A   Clear
8:13 PM 35.6 °F 29.9 °F 26.6 °F 70% 30.13 in 10.0 mi West 6.9 mph - N/A   Clear
8:33 PM 35.6 °F 28.6 °F 24.8 °F 65% 30.13 in 10.0 mi West 9.2 mph - N/A   Clear
8:54 PM 35.6 °F 28.0 °F 24.8 °F 65% 30.13 in 10.0 mi West 10.4 mph - N/A   Clear
9:14 PM 35.6 °F 29.2 °F 23.0 °F 60% 30.12 in 10.0 mi West 8.1 mph - N/A   Clear
9:34 PM 33.8 °F 29.6 °F 24.8 °F 70% 30.12 in 10.0 mi West 4.6 mph - N/A   Clear
9:54 PM 33.8 °F 29.6 °F 24.8 °F 70% 30.11 in 10.0 mi WSW 4.6 mph - N/A   Clear
10:14 PM 30.2 °F 25.4 °F 26.6 °F 86% 30.12 in 10.0 mi WSW 4.6 mph - N/A   Clear
10:34 PM 33.8 °F 29.6 °F 24.8 °F 70% 30.13 in 10.0 mi SW 4.6 mph - N/A   Clear
10:54 PM 33.8 °F 28.6 °F 24.8 °F 70% 30.13 in 10.0 mi SW 5.8 mph - N/A   Clear
11:15 PM 32.0 °F 26.4 °F 26.6 °F 80% 30.14 in 10.0 mi SW 5.8 mph - N/A   Clear
11:35 PM 32.0 °F 26.4 °F 26.6 °F 80% 30.15 in 10.0 mi SW 5.8 mph - N/A   Clear
11:50 PM 33.8 °F 28.6 °F 26.6 °F 75% 30.14 in 10.0 mi SW 5.8 mph - N/A   Clear